Weather History for KMAI - April, 2013

Change the Weather History Date:

Friday, April 26, 2013

  Actual Average Record
Temperature  
Mean Temperature 67 °F 69 °F  
Max Temperature 83 °F 82 °F - ()
Min Temperature 50 °F 57 °F - ()
Degree Days  
Heating Degree Days 0    
Month to date heating degree days 47  
Since 1 July heating degree days 1356  
Cooling Degree Days 2    
Month to date cooling degree days 80  
Year to date cooling degree days 151  
Growing Degree Days 16 (Base 50)    
Moisture  
Dew Point 43 °F    
Average Humidity 46    
Maximum Humidity 74    
Minimum Humidity 17    
Precipitation  
Precipitation 0.00 in 0.07 in - ()
Month to date precipitation 2.90 3.49  
Year to date precipitation 19.75 19.01  
Sea Level Pressure  
Sea Level Pressure 30.25 in    
Wind  
Wind Speed 4 mph (ENE)    
Max Wind Speed 13 mph    
Max Gust Speed 16 mph    
Visibility 10 miles    
Events      
T = Trace of Precipitation, MM = Missing Value Source: NWS Daily Summary

Daily Weather History Graph

Daily Weather History Graph

Search for Another Location

Airport or City:

Trip Planner

Search our weather history database for the weather conditions in past years. The results will help you decide how hot, cold, wet, or windy it might be!

Date:

Astronomy

Apr. 26, 2013 Rise Set
Actual Time 6:01 AM CDT 7:16 PM CDT
Civil Twilight 5:35 AM CDT 7:41 PM CDT
Nautical Twilight 5:05 AM CDT 8:11 PM CDT
Astronomical Twilight 4:34 AM CDT 8:43 PM CDT
Moon 8:32 PM CDT (4/26) 6:31 AM CDT (4/26)
Length of Visible Light 14h 05m
Length of Day
13h 15m
Full, 99% of the Moon is Illuminated
Apr 26
Full
May 2
Last Quarter
May 9
New
May 17
First Quarter
May 24
Full

Hourly Weather History & Observations

Time (CDT) Temp. Dew Point Humidity Pressure Visibility Wind Dir Wind Speed Gust Speed Precip Events Conditions
12:53 AM 59.0 °F 48.0 °F 67% 30.25 in 10.0 mi Calm Calm - N/A   Clear
1:53 AM 57.9 °F 44.1 °F 60% 30.24 in 10.0 mi NNE 3.5 mph - N/A   Clear
2:53 AM 55.9 °F 41.0 °F 57% 30.23 in 10.0 mi NE 4.6 mph - N/A   Clear
3:53 AM 55.0 °F 41.0 °F 59% 30.24 in 10.0 mi NE 3.5 mph - N/A   Clear
4:53 AM 53.1 °F 41.0 °F 64% 30.24 in 10.0 mi ENE 3.5 mph - N/A   Clear
5:53 AM 50.0 °F 42.1 °F 74% 30.25 in 10.0 mi Calm Calm - N/A   Clear
6:53 AM 52.0 °F 43.0 °F 71% 30.28 in 10.0 mi NNE 3.5 mph - N/A   Clear
7:53 AM 57.9 °F 39.9 °F 51% 30.30 in 10.0 mi NE 10.4 mph - N/A   Clear
8:53 AM 64.0 °F 39.0 °F 40% 30.30 in 10.0 mi ENE 8.1 mph - N/A   Clear
9:53 AM 70.0 °F 37.9 °F 31% 30.30 in 10.0 mi East 6.9 mph - N/A   Clear
10:53 AM 73.9 °F 39.0 °F 28% 30.31 in 10.0 mi ENE 4.6 mph - N/A   Clear
12:53 PM 79.0 °F 37.0 °F 22% 30.29 in 10.0 mi ENE 6.9 mph - N/A   Clear
1:53 PM 81.0 °F 37.9 °F 21% 30.27 in 10.0 mi ESE 5.8 mph - N/A   Clear
2:53 PM 82.9 °F 34.0 °F 17% 30.24 in 10.0 mi NE 6.9 mph - N/A   Clear
3:53 PM 82.0 °F 37.0 °F 20% 30.22 in 10.0 mi Variable 6.9 mph - N/A   Clear
6:53 PM 79.0 °F 43.0 °F 28% 30.23 in 10.0 mi Calm Calm - N/A   Clear
7:53 PM 69.1 °F 46.0 °F 44% 30.22 in 10.0 mi Calm Calm - N/A   Clear
8:53 PM 66.0 °F 48.9 °F 54% 30.22 in 10.0 mi Calm Calm - N/A   Clear
9:53 PM 62.1 °F 51.1 °F 67% 30.22 in 10.0 mi Calm Calm - N/A   Clear
10:53 PM 63.0 °F 50.0 °F 63% 30.23 in 10.0 mi SSW 3.5 mph - N/A   Clear
11:53 PM 61.0 °F 52.0 °F 72% 30.24 in 10.0 mi Calm Calm - N/A   Clear